カタログに戻る

KUIPER-00070

運用中通信LEO
NORAD 64817·PAYLOAD·🇺🇸 United States

打ち上げ Jul 16, 2025 から Cape Canaveral Space Force Station

Loading…

次のパス (今後24時間)

TLE

最新Source: CelesTrak SupGP

元期: Sep 14, 2026, 19:30 UTC

1 64817C 25151B   26257.81296296  .00002785  00000+0  36464-3 0  2579
2 64817  51.8987 189.2504 0001134  75.1527 330.3340 14.79922423    11

AllMySatでKUIPER-00070をリアルタイム追跡

Download on the App Store